Weather History for Louisville Bowman, KY

Change the Weather History Date:

Thursday, January 17, 2013

  Actual Average Record
Temperature  
Mean Temperature 39 °F 34 °F  
Max Temperature 47 °F 42 °F 69 °F (1952)
Min Temperature 31 °F 26 °F -13 °F (1977)
Degree Days  
Heating Degree Days 26 31  
Month to date heating degree days 440 521  
Since 1 July heating degree days 2035 2185  
Cooling Degree Days 0 0  
Month to date cooling degree days 0 0  
Year to date cooling degree days 0 0  
Moisture  
Dew Point 26 °F    
Average Humidity 67    
Maximum Humidity 85    
Minimum Humidity 49    
Precipitation  
Precipitation 0.00 in 0.11 in 1.31 in (2006)
Month to date precipitation 3.62 2.04  
Year to date precipitation 3.62 2.04  
Sea Level Pressure  
Sea Level Pressure 30.24 in    
Wind  
Wind Speed 5 mph (North)    
Max Wind Speed 15 mph    
Max Gust Speed 21 mph    
Visibility 9 miles    
Events      
T = Trace of Precipitation, MM = Missing Value Source: NWS Daily Summary

Daily Weather History Graph

Daily Weather History Graph

Search for Another Location

Airport:

Trip Planner

Search our weather history database for the weather conditions in past years. The results will help you decide how hot, cold, wet, or windy it might be!

Date:

Astronomy

Jan. 17, 2013 Rise Set
Actual Time 7:57 AM EST 5:48 PM EST
Civil Twilight 7:28 AM EST 6:17 PM EST
Nautical Twilight 6:56 AM EST 6:50 PM EST
Astronomical Twilight 6:24 AM EST 7:21 PM EST
Moon 11:10 AM EST (1/17) No Moon Set
Length of Visible Light 10h 49m
Length of Day
9h 51m
Waxing Crescent, 37% of the Moon is Illuminated
Jan 17
Waxing Crescent
Jan 18
First Quarter
Jan 26
Full
Feb 3
Last Quarter
Feb 10
New

Hourly Weather History & Observations

Time (EST) Temp. Windchill Dew Point Humidity Pressure Visibility Wind Dir Wind Speed Gust Speed Precip Events Conditions
12:53 AM 32.0 °F - 27.0 °F 82% 30.16 in 8.0 mi Calm Calm - N/A   Partly Cloudy
1:53 AM 32.0 °F - 27.0 °F 82% 30.17 in 8.0 mi Calm Calm - N/A   Clear
2:53 AM 32.0 °F - 27.0 °F 82% 30.17 in 8.0 mi Calm Calm - N/A   Clear
3:53 AM 32.0 °F - 27.0 °F 82% 30.17 in 8.0 mi Calm Calm - N/A   Overcast
4:53 AM 32.0 °F - 27.0 °F 82% 30.17 in 7.0 mi Calm Calm - N/A   Mostly Cloudy
5:53 AM 32.0 °F - 27.0 °F 82% 30.18 in 8.0 mi Calm Calm - N/A   Clear
6:53 AM 30.9 °F - 27.0 °F 85% 30.18 in 7.0 mi Calm Calm - N/A   Clear
7:53 AM 30.9 °F 27.5 °F 26.1 °F 82% 30.18 in 7.0 mi North 3.5 mph - N/A   Clear
8:53 AM 32.0 °F - 25.0 °F 75% 30.22 in 8.0 mi Calm Calm - N/A   Clear
9:53 AM 33.1 °F 30.0 °F 26.1 °F 75% 30.24 in 8.0 mi North 3.5 mph - N/A   Clear
10:53 AM 36.0 °F 32.1 °F 27.0 °F 70% 30.25 in 9.0 mi North 4.6 mph - N/A   Clear
11:53 AM 39.0 °F 32.8 °F 28.0 °F 65% 30.19 in 10.0 mi NNE 9.2 mph - N/A   Clear
12:53 PM 42.1 °F 36.6 °F 30.0 °F 62% 30.16 in 10.0 mi North 9.2 mph - N/A   Clear
1:53 PM 44.1 °F 40.1 °F 30.9 °F 60% 30.14 in 10.0 mi North 6.9 mph - N/A   Clear
2:53 PM 46.9 °F - 28.9 °F 50% 30.15 in 10.0 mi North 12.7 mph 17.3 mph N/A   Clear
3:53 PM 46.9 °F - 30.0 °F 52% 30.16 in 10.0 mi North 9.2 mph - N/A   Partly Cloudy
4:53 PM 45.0 °F 37.9 °F 26.1 °F 48% 30.22 in 10.0 mi NNW 16.1 mph 20.7 mph N/A   Clear
5:53 PM 41.0 °F 37.1 °F 26.1 °F 55% 30.27 in 10.0 mi NNW 5.8 mph - N/A   Clear
6:53 PM 39.9 °F 35.8 °F 26.1 °F 58% 30.29 in 10.0 mi North 5.8 mph - N/A   Clear
7:53 PM 37.9 °F 34.4 °F 26.1 °F 62% 30.34 in 10.0 mi NNW 4.6 mph - N/A   Clear
8:53 PM 36.0 °F 31.1 °F 24.1 °F 62% 30.38 in 10.0 mi NNW 5.8 mph - N/A   Clear
9:53 PM 34.0 °F 28.0 °F 23.0 °F 64% 30.42 in 10.0 mi NNW 6.9 mph - N/A   Clear
10:53 PM 33.1 °F 26.9 °F 21.9 °F 64% 30.43 in 10.0 mi NNW 6.9 mph - N/A   Clear
11:53 PM 30.9 °F 26.2 °F 21.0 °F 67% 30.44 in 10.0 mi NNW 4.6 mph - N/A   Clear